カタログに戻る

STARLINK-34983

運用中通信VLEO
NORAD 65411·PAYLOAD·🇺🇸 United States

打ち上げ Aug 31, 2025 から Cape Canaveral Space Force Station

Loading…

次のパス (今後24時間)

TLE

最新Source: CelesTrak SupGP

元期: Sep 14, 2026, 15:20 UTC

1 65411C 25192H   26257.63937500 -.00042444  00000+0 -13648-2 0  2571
2 65411  53.1594  72.9664 0001140  83.8325  61.9528 15.31726325    12

AllMySatでSTARLINK-34983をリアルタイム追跡

Download on the App Store